Find Thaicom 1

NORAD ID: 22931 Int'l Des: 1993-078 Owner: SHINW Country: T operational
HEOCIRCULAR

Live Position

Loading 3D Globe...

About Thaicom 1

Description loading...

Upcoming Passes

Passes for default location (London). Set your location on the main map for personalized predictions.

Altitude History

Loading altitude history...

Two-Line Element Set

1 22931U 93078B 26104.28548977 -.00000091 00000-0 00000+0 0 9997
2 22931 11.8092 35.2987 0004694 232.5992 316.9027 0.99181037 45532
Epoch: Apr 14, 2026 • Age: 14 hours

Current Status

Altitude 36113.7 km
Velocity 3.06 km/s
Sub-Earth Point 8.11°N, 83.4°W
Launch Date Dec 18, 1993
Age 32.3 years
Type other

Technical Details

Classification Payload
Mass 596.00 kg
Dry Mass 402.00 kg
Total Mass 1080.00 kg
Length 6.70 m
Diameter 2.20 m
Span 6.70 m
Shape Cyl
Manufacturer HSES
Bus Type HS-376L
Phase Status In Orbit
Owner/State SHINW/T

Most Searched